Location: Bezawada
(16.5136°N, 80.6297°E)
Time: 11:04:20
(UTC+00:00)

Delta 7925 Rocket - Pass Details

Date: 27 February 2020
Orbit: 645 x 1647 km, 26.3° (Epoch: 08 April)

Event Time Altitude Azimuth Distance (km) Brightness Sun altitude
Exits shadow 23:36:21 38° 243° (WSW) 1,061 3.8 -20.0°
Maximum altitude 23:37:28 45° 207° (SSW) 937 3.7 -19.7°
Drops below altitude 10° 23:41:54 10° 135° (SE) 2,039 6.4 -18.6°
Sets 23:44:15 0° 128° (SE) 2,933 7.5 -18.1°
